Regional Weather Roundup
Issued by NWS

Home | Current Version | Previous Version | Text Only | Print | Product List | Glossary On
Versions: 1 2 3 4 5 6 7 8 9 10 11 12 13 14 15 16 17 18 19 20 21 22 23 24 25 26 27 28 29 30 31 32 33 34 35 36 37 38 39 40 41 42 43 44 45 46 47 48 49 50
000
ASUS42 KFFC 201110
RWRGA
WEATHER ROUNDUP FOR GEORGIA
NATIONAL WEATHER SERVICE PEACHTREE CITY GA
700 AM EDT MON MAY 20 2019

NOTE: "FAIR" INDICATES FEW OR NO CLOUDS BELOW 12,000 FEET WITH NO
SIGNIFICANT WEATHER AND/OR OBSTRUCTIONS TO VISIBILITY.

* = USE WITH CAUTION. THE STATIONS MARKED WITH AN ASTERISK MAY NOT
REPORT WEATHER SUCH AS PRECIPITATION, FOG, OR THUNDER AND ARE NOT
QUALITY CONTROLLED BY NWS.

THE REMARK "TC" DENOTES TEMPERATURE READING IN DEGREES CELSIUS.

GAZ001>058-201200-
NORTH GEORGIA

CITY           SKY/WX    TMP DP  RH WIND       PRES   REMARKS
ATLANTA        MOCLDY    71  63  75 S3        30.04R
ATHENS         FAIR      67  64  90 VRB3      30.03S
CHAMBLEE       CLOUDY    69  63  81 CALM      30.04R
PEACHTREE CITY CLOUDY    67  64  90 CALM      30.04R FOG
ROME           FAIR      65  62  90 CALM      30.02R
WEST ATLANTA   CLOUDY    69  63  81 CALM      30.03R
GAINESVILLE    MOCLDY    66  63  90 VRB3      30.06R
CARTERSVILLE   CLOUDY    67  65  93 CALM      30.04R


CITY           SKY/WX    TMP DP  RH WIND       PRES   REMARKS
DALTON*        FAIR      64  61  88 CALM      30.05R
LAWRENCEVILLE* MOCLDY    66  63  90 CALM      30.04R
MARIETTA       MOCLDY    70  62  75 SW2       30.04R
KENNESAW*      CLOUDY    71  62  73 W3        30.05R
CANTON*        CLOUDY    66  63  88 CALM      30.06R
BLAIRSVILLE*   RAIN      61  60  96 CALM      30.09R
$$

GAZ059>098-102>109-201200-
CENTRAL GEORGIA

CITY           SKY/WX    TMP DP  RH WIND       PRES   REMARKS
AUGUSTA-BUSH   CLOUDY    72  70  93 S3        30.03R
AUGUSTA-DANIEL MOCLDY    72  68  87 S8        30.04R
COLUMBUS       MOCLDY    71  62  73 NW3       30.04R
MACON          FAIR      66  62  87 CALM      30.03R
ROBINS AFB     CLEAR     66  65  96 CALM      30.02R


CITY           SKY/WX    TMP DP  RH WIND       PRES   REMARKS
LAGRANGE*      FAIR      65  65  98 CALM      30.05R FOG
SYLVANIA*      CLOUDY    71  70  97 S3        30.05R FOG
MILLEDGEVILLE* FAIR      68  68 100 CALM      30.04R
$$

GAZ099>101-110>166-201200-
SOUTH GEORGIA

CITY           SKY/WX    TMP DP  RH WIND       PRES   REMARKS
SAVANNAH       FAIR      72  71  97 S3        30.05R
VALDOSTA       FOG       63  62  97 CALM      30.05R VSB 3/4
ALMA           FAIR      68  66  93 NW7       30.05R FOG
ST SIMONS      FAIR      76  70  82 S3        30.04R
FT STEWART     FOG       67  67 100 MISG      30.02S VSB 5/8
HUNTER AFB     FAIR      72  69  90 CALM      30.02S
MOODY AFB      FAIR      66  66 100 CALM      30.04R
BRUNSWICK      FAIR      73  70  91 SW6       30.04R


CITY           SKY/WX    TMP DP  RH WIND       PRES   REMARKS
BAINBRIDGE*      N/A     70  64  83 MISG      30.04R
MOULTRIE*      FAIR      64  63  94 CALM      30.06R
VIDALIA*       MOCLDY    70  66  88 SW5       30.05R FOG
WAYCROSS*      FAIR      69  64  84 SE3       30.04R
DOUGLAS*       FAIR      66  65  98 CALM      30.07R FOG
$$



USA.gov is the U.S. government's official web portal to all federal, state and local government web resources and services.